Location: Larch Mountain
(45.5297°N, 122.0872°W)
Time: 20:21:55
(UTC-08:00)

ISS - All Passes

Search period start: 06 March 2015 00:00
Search period end: 16 March 2015 01:00
Orbit: 396 x 408 km, 51.6° (Epoch: 06 March)

Date Brightness Start Highest point End Pass type
(mag) Time Alt. Az. Time Alt. Az. Time Alt. Az.
06 Mar - 06:39:55 10° SSE 06:40:41 11° SE 06:41:34 10° ESE daylight
06 Mar - 08:13:26 10° SW 08:16:39 72° SSE 08:19:52 10° ENE daylight
06 Mar - 09:50:20 10° WNW 09:53:17 32° NNW 09:56:15 10° NE daylight
06 Mar - 11:27:26 10° NW 11:30:18 28° N 11:33:10 10° ENE daylight
06 Mar - 13:03:51 10° WNW 13:07:05 75° NNE 13:10:19 10° ESE daylight
06 Mar - 14:40:57 10° W 14:43:12 17° SW 14:45:25 10° S daylight
07 Mar - 07:20:45 10° SW 07:23:47 40° SE 07:26:51 10° ENE daylight
07 Mar - 08:57:09 10° W 09:00:14 41° NNW 09:03:19 10° NE daylight
07 Mar - 10:34:24 10° WNW 10:37:11 26° N 10:40:00 10° ENE daylight
07 Mar - 12:10:57 10° NW 12:14:06 48° NNE 12:17:15 10° E daylight
07 Mar - 13:47:32 10° WNW 13:50:26 30° SW 13:53:19 10° SSE daylight
08 Mar - 07:28:23 10° SSW 07:30:58 23° SE 07:33:36 10° E daylight
08 Mar - 09:04:00 10° WSW 09:07:12 60° NNW 09:10:24 10° ENE daylight
08 Mar - 10:41:13 10° WNW 10:44:03 27° N 10:46:52 10° NE daylight
08 Mar - 12:18:00 10° NW 12:21:02 35° NNE 12:24:04 10° E daylight
08 Mar - 13:54:24 10° WNW 13:57:35 54° SW 14:00:45 10° SE daylight
09 Mar - 06:36:43 10° SSE 06:38:11 13° SE 06:39:46 10° ESE visible
09 Mar - 08:10:58 10° WSW 08:14:11 84° SSE 08:17:26 10° ENE daylight
09 Mar - 09:47:58 10° WNW 09:50:53 30° N 09:53:49 10° NE daylight
09 Mar - 11:25:01 10° NW 11:27:54 29° N 11:30:47 10° ENE daylight
09 Mar - 13:01:23 10° WNW 13:04:38 86° NE 13:07:52 10° ESE daylight
09 Mar - 14:38:44 10° W 14:40:41 15° SW 14:42:33 10° S daylight
10 Mar - 07:18:07 10° SW 07:21:14 47° SE 07:24:22 10° ENE daylight
10 Mar - 08:54:40 10° W 08:57:44 38° NNW 09:00:47 10° NE daylight
10 Mar - 10:31:53 10° WNW 10:34:41 26° N 10:37:31 10° ENE daylight
10 Mar - 12:08:23 10° NW 12:11:34 54° NNE 12:14:45 10° ESE daylight
10 Mar - 13:45:04 10° W 13:47:51 26° SW 13:50:35 10° SSE daylight
11 Mar - 06:25:33 10° SSW 06:28:18 26° SE 06:31:06 10° E visible
11 Mar - 08:01:25 10° WSW 08:04:35 53° NNW 08:07:46 10° NE daylight
11 Mar - 09:38:39 10° WNW 09:41:28 26° N 09:44:16 10° ENE daylight
11 Mar - 11:15:22 10° NW 11:18:26 38° NNE 11:21:29 10° E daylight
11 Mar - 12:51:48 10° WNW 12:54:55 46° SW 12:58:01 10° SE daylight
12 Mar - 05:33:31 10° S 05:35:25 15° SE 05:37:23 10° E visible
12 Mar - 07:08:14 10° WSW 07:11:29 85° NNW 07:14:43 10° ENE daylight
12 Mar - 08:45:19 10° WNW 08:48:12 29° N 08:51:06 10° NE daylight
12 Mar - 10:22:17 10° NW 10:25:12 30° N 10:28:08 10° ENE daylight
12 Mar - 11:58:39 10° WNW 12:01:53 83° SSW 12:05:07 10° ESE daylight
12 Mar - 13:36:21 10° WSW 13:37:53 13° SW 13:39:19 10° SSW daylight
13 Mar - 06:15:14 10° SW 06:18:24 55° SE 06:21:35 10° ENE visible
13 Mar - 07:51:56 10° W 07:54:56 35° NNW 07:57:58 10° NE daylight
13 Mar - 09:29:06 10° NW 09:31:55 27° N 09:34:45 10° ENE daylight
13 Mar - 11:05:33 10° WNW 11:08:45 60° NNE 11:11:58 10° ESE daylight
13 Mar - 12:42:21 10° W 12:44:58 22° SW 12:47:33 10° SSE daylight
14 Mar - 05:22:29 10° SSW 05:25:22 30° SE 05:28:17 10° ENE visible
14 Mar - 06:58:33 10° W 07:01:42 48° NNW 07:04:51 10° NE daylight
14 Mar - 08:35:48 10° WNW 08:38:36 26° N 08:41:24 10° ENE daylight
14 Mar - 10:12:27 10° NW 10:15:33 41° NNE 10:18:37 10° E daylight
14 Mar - 11:48:54 10° WNW 11:51:58 40° SW 11:55:00 10° SSE daylight
15 Mar - 04:30:10 10° S 04:32:22 17° SE 04:34:38 10° E visible
15 Mar - 06:05:15 10° WSW 06:08:29 75° NNW 06:11:43 10° ENE visible
15 Mar - 07:42:23 10° WNW 07:45:15 28° N 07:48:07 10° NE daylight
15 Mar - 09:19:17 10° NW 09:22:14 32° NNE 09:25:12 10° ENE daylight
15 Mar - 10:55:38 10° WNW 10:58:52 72° SSW 11:02:05 10° SE daylight
15 Mar - 12:33:56 10° WSW 12:34:48 11° SW 12:35:33 10° SSW daylight
